UAL684 KLAX-KIAD

Flight info

Callsign UAL684
Flight time 3h 56m
Altitude 39000
Route ORCKA5 LAS J146 DVC/N0475F410 HLC STJ SPI J80 VHP APE MGW GIBBZ5
Aircraft B772/H-SDE2E3FGHIJ5LORVWXY/LB1D1

Departure

Time 2026-04-22 16:52
Airport Los Angeles International Airport (KLAX)

Arrival

Time 2026-04-22 20:49
Airport Washington Dulles International Airport (KIAD)
Time Latitude Longitude Altitude Speed Heading
2026-04-22 16:07 33.94163 -118.39910 140 ft 0 kts 263°
2026-04-22 16:40 33.94166 -118.39880 140 ft 3 kts 263°
2026-04-22 16:41 33.94168 -118.39856 140 ft 3 kts 263°
2026-04-22 16:41 33.94171 -118.39831 140 ft 3 kts 263°
2026-04-22 16:41 33.94172 -118.39818 140 ft 0 kts 263°
2026-04-22 16:44 33.94171 -118.39822 140 ft 1 kts 251°
2026-04-22 16:44 33.94165 -118.39828 140 ft 1 kts 199°
2026-04-22 16:44 33.94128 -118.39832 140 ft 8 kts 180°
2026-04-22 16:44 33.94072 -118.39832 140 ft 5 kts 180°
2026-04-22 16:45 33.94071 -118.39832 140 ft 0 kts 180°
2026-04-22 16:45 33.94070 -118.39832 140 ft 1 kts 180°
2026-04-22 16:45 33.94028 -118.39832 140 ft 10 kts 179°
2026-04-22 16:46 33.93928 -118.39801 140 ft 16 kts 133°
2026-04-22 16:46 33.93913 -118.39673 140 ft 15 kts 84°
2026-04-22 16:46 33.93925 -118.39548 140 ft 15 kts 82°
2026-04-22 16:46 33.93938 -118.39432 140 ft 14 kts 83°
2026-04-22 16:47 33.93945 -118.39359 140 ft 13 kts 83°
2026-04-22 16:47 33.93955 -118.39254 140 ft 12 kts 83°
2026-04-22 16:47 33.93965 -118.39156 140 ft 11 kts 83°
2026-04-22 16:47 33.93974 -118.39064 140 ft 11 kts 83°
2026-04-22 16:48 33.93983 -118.38978 140 ft 10 kts 83°
2026-04-22 16:48 33.93992 -118.38890 140 ft 12 kts 82°
2026-04-22 16:48 33.94005 -118.38769 140 ft 17 kts 83°
2026-04-22 16:48 33.94021 -118.38608 140 ft 22 kts 84°
2026-04-22 16:49 33.94040 -118.38413 140 ft 25 kts 83°
2026-04-22 16:49 33.94061 -118.38206 140 ft 24 kts 82°
2026-04-22 16:49 33.94068 -118.38095 140 ft 2 kts 98°
2026-04-22 16:50 33.94067 -118.38091 140 ft 3 kts 99°
2026-04-22 16:50 33.94019 -118.38044 140 ft 12 kts 196°
2026-04-22 16:51 33.93976 -118.38124 140 ft 12 kts 255°
2026-04-22 16:51 33.93972 -118.38145 140 ft 0 kts 259°
2026-04-22 16:51 33.93970 -118.38156 140 ft 12 kts 259°
2026-04-22 16:51 33.93927 -118.38564 140 ft 86 kts 263°
2026-04-22 16:52 33.93825 -118.39558 141 ft 151 kts 263°
2026-04-22 16:52 33.93692 -118.40875 879 ft 144 kts 263°
2026-04-22 16:52 33.93574 -118.42040 1841 ft 142 kts 262°
2026-04-22 16:52 33.93452 -118.43218 2250 ft 144 kts 263°
2026-04-22 16:53 33.93322 -118.44480 2444 ft 160 kts 263°
2026-04-22 16:53 33.93176 -118.45882 2645 ft 178 kts 262°
2026-04-22 16:53 33.92875 -118.47418 2829 ft 199 kts 253°
2026-04-22 16:53 33.92373 -118.49035 3161 ft 212 kts 249°
2026-04-22 16:54 33.91787 -118.50752 3381 ft 232 kts 248°
2026-04-22 16:54 33.91137 -118.52594 3783 ft 245 kts 248°
2026-04-22 16:54 33.90461 -118.54516 4326 ft 253 kts 248°
2026-04-22 16:54 33.89765 -118.56492 4923 ft 258 kts 248°
2026-04-22 16:55 33.89055 -118.58498 5585 ft 262 kts 248°
2026-04-22 16:55 33.88334 -118.60525 6284 ft 264 kts 248°
2026-04-22 16:55 33.87605 -118.62565 6980 ft 266 kts 248°
2026-04-22 16:55 33.86862 -118.64614 7689 ft 268 kts 248°
2026-04-22 16:56 33.86117 -118.66650 8367 ft 270 kts 248°
2026-04-22 16:56 33.85354 -118.68730 9020 ft 274 kts 248°
2026-04-22 16:56 33.84580 -118.70823 9768 ft 273 kts 248°
2026-04-22 16:56 33.83718 -118.72861 10422 ft 279 kts 238°
2026-04-22 16:57 33.82250 -118.74498 10807 ft 303 kts 214°
2026-04-22 16:57 33.80175 -118.75304 11267 ft 328 kts 192°
2026-04-22 16:57 33.77834 -118.75063 11843 ft 351 kts 170°
2026-04-22 16:57 33.75578 -118.73746 12528 ft 373 kts 149°
2026-04-22 16:58 33.73747 -118.71481 13403 ft 385 kts 129°
2026-04-22 16:58 33.72592 -118.68587 14223 ft 395 kts 109°
2026-04-22 16:58 33.72225 -118.65340 14992 ft 404 kts 90°
2026-04-22 16:58 33.72710 -118.62006 15732 ft 408 kts 71°
2026-04-22 16:59 33.74016 -118.58985 16474 ft 408 kts 51°
2026-04-22 16:59 33.75936 -118.56586 17208 ft 406 kts 36°
2026-04-22 16:59 33.78295 -118.54753 17864 ft 403 kts 25°
2026-04-22 16:59 33.80746 -118.53016 18422 ft 413 kts 27°
2026-04-22 17:00 33.83177 -118.51157 18996 ft 415 kts 27°
2026-04-22 17:00 33.88079 -118.47484 19254 ft 421 kts 26°
2026-04-22 17:00 33.90464 -118.45517 19829 ft 430 kts 33°
2026-04-22 17:01 33.92692 -118.43148 20539 ft 434 kts 38°
2026-04-22 17:01 33.94871 -118.40608 21112 ft 441 kts 42°
2026-04-22 17:01 33.96776 -118.37712 21602 ft 452 kts 53°
2026-04-22 17:01 33.98412 -118.34392 22248 ft 456 kts 57°
2026-04-22 17:02 34.00097 -118.31140 22792 ft 458 kts 53°
2026-04-22 17:02 34.01904 -118.28032 22709 ft 460 kts 51°
2026-04-22 17:02 34.03754 -118.24864 22805 ft 464 kts 52°
2026-04-22 17:02 34.05577 -118.21649 23433 ft 467 kts 53°
2026-04-22 17:03 34.07414 -118.18385 24082 ft 470 kts 53°
2026-04-22 17:03 34.09260 -118.15111 24662 ft 475 kts 53°
2026-04-22 17:03 34.11134 -118.11793 25278 ft 478 kts 53°
2026-04-22 17:03 34.13017 -118.08450 25834 ft 483 kts 53°
2026-04-22 17:04 34.14910 -118.05090 26363 ft 487 kts 53°
2026-04-22 17:04 34.16828 -118.01681 26888 ft 491 kts 53°
2026-04-22 17:04 34.18772 -117.98265 27427 ft 494 kts 52°
2026-04-22 17:04 34.20719 -117.94829 27887 ft 498 kts 52°
2026-04-22 17:05 34.22675 -117.91346 28361 ft 501 kts 53°
2026-04-22 17:05 34.24636 -117.87842 28786 ft 505 kts 53°
2026-04-22 17:05 34.26606 -117.84315 29231 ft 508 kts 53°
2026-04-22 17:05 34.28589 -117.80763 29671 ft 511 kts 53°
2026-04-22 17:06 34.30586 -117.77183 30048 ft 514 kts 53°
2026-04-22 17:06 34.32565 -117.73635 30450 ft 517 kts 53°
2026-04-22 17:06 34.34588 -117.70010 30744 ft 522 kts 53°
2026-04-22 17:06 34.36665 -117.66320 31144 ft 523 kts 52°
2026-04-22 17:07 34.38794 -117.62728 31460 ft 526 kts 50°
2026-04-22 17:07 34.40967 -117.59154 31789 ft 529 kts 50°
2026-04-22 17:07 34.43152 -117.55540 32050 ft 533 kts 50°
2026-04-22 17:07 34.45336 -117.51894 32411 ft 535 kts 51°
2026-04-22 17:08 34.47521 -117.48225 32683 ft 538 kts 51°
2026-04-22 17:08 34.49714 -117.44531 32935 ft 541 kts 51°
2026-04-22 17:08 34.51916 -117.40814 33209 ft 543 kts 51°
2026-04-22 17:08 34.54123 -117.37085 33472 ft 546 kts 51°
2026-04-22 17:09 34.56358 -117.33326 33684 ft 548 kts 50°
2026-04-22 17:09 34.58599 -117.29585 34047 ft 548 kts 50°
2026-04-22 17:09 34.60076 -117.27105 34344 ft 546 kts 50°
2026-04-22 17:09 34.63017 -117.22143 34741 ft 547 kts 50°
2026-04-22 17:10 34.65267 -117.18336 35048 ft 547 kts 50°
2026-04-22 17:10 34.67492 -117.14566 35327 ft 548 kts 50°
2026-04-22 17:10 34.69710 -117.10802 35672 ft 547 kts 50°
2026-04-22 17:10 34.71923 -117.07040 35989 ft 547 kts 50°
2026-04-22 17:11 34.74148 -117.03268 36221 ft 548 kts 49°
2026-04-22 17:11 34.76375 -116.99515 36528 ft 547 kts 49°
2026-04-22 17:11 34.78590 -116.95744 36793 ft 547 kts 49°
2026-04-22 17:11 34.80796 -116.91972 37053 ft 548 kts 49°
2026-04-22 17:12 34.83000 -116.88193 37305 ft 548 kts 49°
2026-04-22 17:12 34.85205 -116.84410 37570 ft 547 kts 49°
2026-04-22 17:12 34.87405 -116.80632 37843 ft 547 kts 49°
2026-04-22 17:12 34.89583 -116.76893 38008 ft 548 kts 48°
2026-04-22 17:13 34.91801 -116.73127 38290 ft 545 kts 46°
2026-04-22 17:13 34.94171 -116.69539 38527 ft 540 kts 42°
2026-04-22 17:13 34.96681 -116.66137 38707 ft 538 kts 39°
2026-04-22 17:13 34.99256 -116.62848 38988 ft 535 kts 38°
2026-04-22 17:14 35.01849 -116.59586 39136 ft 536 kts 38°
2026-04-22 17:14 35.04429 -116.56279 39144 ft 537 kts 38°
2026-04-22 17:14 35.09532 -116.49587 39142 ft 538 kts 39°
2026-04-22 17:15 35.14605 -116.42864 39140 ft 538 kts 39°
2026-04-22 17:15 35.19661 -116.36209 39139 ft 538 kts 39°
2026-04-22 17:16 35.24740 -116.29485 39139 ft 538 kts 39°
2026-04-22 17:16 35.29810 -116.22741 39138 ft 538 kts 39°
2026-04-22 17:17 35.34877 -116.15983 39137 ft 539 kts 39°
2026-04-22 17:17 35.39953 -116.09197 39124 ft 539 kts 39°
2026-04-22 17:18 35.45029 -116.02440 39122 ft 539 kts 39°
2026-04-22 17:18 35.50138 -115.95581 39119 ft 539 kts 40°
2026-04-22 17:19 35.60243 -115.81943 39117 ft 540 kts 40°
2026-04-22 17:20 35.70275 -115.68232 39116 ft 542 kts 40°
2026-04-22 17:21 35.77799 -115.57846 39114 ft 541 kts 40°
2026-04-22 17:22 35.85313 -115.47449 39116 ft 541 kts 40°
2026-04-22 17:23 35.92863 -115.37105 39117 ft 541 kts 40°
2026-04-22 17:23 35.99543 -115.27806 39115 ft 541 kts 41°
2026-04-22 17:24 36.04538 -115.20836 39109 ft 542 kts 41°
2026-04-22 17:24 36.09058 -115.13299 39095 ft 551 kts 56°
2026-04-22 17:25 36.11869 -115.04432 39091 ft 558 kts 68°
2026-04-22 17:25 36.14325 -114.95252 39067 ft 563 kts 67°
2026-04-22 17:26 36.17094 -114.86247 39065 ft 565 kts 66°
2026-04-22 17:26 36.19903 -114.77028 39061 ft 564 kts 66°
2026-04-22 17:27 36.22665 -114.67991 39059 ft 564 kts 66°
2026-04-22 17:27 36.25430 -114.58889 39083 ft 564 kts 66°
2026-04-22 17:28 36.28203 -114.49726 39089 ft 564 kts 66°
2026-04-22 17:28 36.30943 -114.40676 39092 ft 564 kts 65°
2026-04-22 17:29 36.33742 -114.31583 39093 ft 564 kts 66°
2026-04-22 17:29 36.36500 -114.22487 39094 ft 564 kts 66°
2026-04-22 17:30 36.39249 -114.13357 39095 ft 565 kts 66°
2026-04-22 17:30 36.41996 -114.04194 39096 ft 565 kts 66°
2026-04-22 17:31 36.44729 -113.95050 39096 ft 564 kts 66°
2026-04-22 17:31 36.47453 -113.85905 39099 ft 564 kts 66°
2026-04-22 17:32 36.50168 -113.76759 39100 ft 564 kts 66°
2026-04-22 17:32 36.52903 -113.67607 39106 ft 564 kts 66°
2026-04-22 17:33 36.55607 -113.58460 39107 ft 564 kts 67°
2026-04-22 17:33 36.58269 -113.49353 39127 ft 563 kts 67°
2026-04-22 17:34 36.60944 -113.40181 39130 ft 563 kts 67°
2026-04-22 17:34 36.63613 -113.31005 39134 ft 563 kts 67°
2026-04-22 17:35 36.66251 -113.21834 39139 ft 562 kts 67°
2026-04-22 17:35 36.68879 -113.12654 39146 ft 562 kts 67°
2026-04-22 17:36 36.71498 -113.03475 39149 ft 561 kts 67°
2026-04-22 17:36 36.74108 -112.94309 39158 ft 561 kts 67°
2026-04-22 17:37 36.76759 -112.85162 39159 ft 561 kts 67°
2026-04-22 17:37 36.79404 -112.76009 39158 ft 560 kts 67°
2026-04-22 17:38 36.82000 -112.66840 39158 ft 560 kts 68°
2026-04-22 17:38 36.84576 -112.57659 39157 ft 560 kts 68°
2026-04-22 17:39 36.87130 -112.48537 39156 ft 560 kts 68°
2026-04-22 17:40 36.90995 -112.34767 39155 ft 560 kts 68°
2026-04-22 17:40 36.93561 -112.25584 39122 ft 560 kts 68°
2026-04-22 17:41 36.96114 -112.16392 39103 ft 559 kts 68°
2026-04-22 17:41 36.98656 -112.07202 39082 ft 559 kts 68°
2026-04-22 17:42 37.01189 -111.98017 39072 ft 558 kts 68°
2026-04-22 17:42 37.03722 -111.88941 39062 ft 555 kts 67°
2026-04-22 17:43 37.06272 -111.79792 39053 ft 555 kts 68°
2026-04-22 17:43 37.08788 -111.70648 39047 ft 555 kts 68°
2026-04-22 17:44 37.11293 -111.61503 39042 ft 555 kts 68°
2026-04-22 17:44 37.13820 -111.52373 39040 ft 554 kts 68°
2026-04-22 17:45 37.16285 -111.43274 39038 ft 554 kts 69°
2026-04-22 17:45 37.18747 -111.34126 39036 ft 553 kts 69°
2026-04-22 17:46 37.21210 -111.24972 39035 ft 553 kts 69°
2026-04-22 17:46 37.23661 -111.15833 39033 ft 552 kts 69°
2026-04-22 17:47 37.26093 -111.06694 39028 ft 552 kts 69°
2026-04-22 17:47 37.28512 -110.97555 39022 ft 551 kts 69°
2026-04-22 17:48 37.30517 -110.89956 39017 ft 551 kts 69°
2026-04-22 17:48 37.33318 -110.79333 39010 ft 549 kts 69°
2026-04-22 17:49 37.35768 -110.70246 39004 ft 548 kts 69°
2026-04-22 17:49 37.38181 -110.61144 39001 ft 548 kts 70°
2026-04-22 17:50 37.40569 -110.52055 39001 ft 547 kts 70°
2026-04-22 17:50 37.42928 -110.43032 39002 ft 546 kts 70°
2026-04-22 17:51 37.45291 -110.33962 39005 ft 545 kts 70°
2026-04-22 17:51 37.47644 -110.24895 39012 ft 544 kts 70°
2026-04-22 17:52 37.49985 -110.15839 39022 ft 543 kts 70°
2026-04-22 17:52 37.52319 -110.06781 39035 ft 543 kts 71°
2026-04-22 17:53 37.54640 -109.97740 39050 ft 542 kts 71°
2026-04-22 17:53 37.56955 -109.88692 39062 ft 541 kts 71°
2026-04-22 17:54 37.59237 -109.79738 39078 ft 540 kts 71°
2026-04-22 17:54 37.61531 -109.70704 39088 ft 540 kts 71°
2026-04-22 17:55 37.63446 -109.63137 39090 ft 540 kts 71°
2026-04-22 17:55 37.66098 -109.52625 39092 ft 540 kts 71°
2026-04-22 17:56 37.68368 -109.43589 39094 ft 539 kts 71°
2026-04-22 17:56 37.70628 -109.34560 39102 ft 539 kts 71°
2026-04-22 17:57 37.72910 -109.25545 39116 ft 538 kts 71°
2026-04-22 17:57 37.75149 -109.16525 39124 ft 537 kts 72°
2026-04-22 17:58 37.77367 -109.07504 39128 ft 536 kts 72°
2026-04-22 17:58 37.79572 -108.98514 39131 ft 535 kts 72°
2026-04-22 17:59 37.81742 -108.89527 39133 ft 533 kts 74°
2026-04-22 17:59 37.83605 -108.80455 39137 ft 532 kts 76°
2026-04-22 18:00 37.85082 -108.72916 39141 ft 530 kts 76°
2026-04-22 18:00 37.87177 -108.62407 39149 ft 528 kts 76°
2026-04-22 18:01 37.88981 -108.53407 39167 ft 526 kts 77°
2026-04-22 18:01 37.90827 -108.44439 39175 ft 525 kts 76°
2026-04-22 18:02 37.92669 -108.35505 39184 ft 523 kts 77°
2026-04-22 18:02 37.94176 -108.28083 39190 ft 522 kts 77°
2026-04-22 18:03 37.95970 -108.19175 39181 ft 522 kts 77°
2026-04-22 18:03 37.97751 -108.10277 39191 ft 520 kts 77°
2026-04-22 18:04 37.99524 -108.01375 39204 ft 520 kts 77°
2026-04-22 18:04 38.01289 -107.92471 39213 ft 520 kts 77°
2026-04-22 18:05 38.03049 -107.83516 39202 ft 527 kts 76°
2026-04-22 18:05 38.04837 -107.74430 39192 ft 535 kts 75°
2026-04-22 18:06 38.06646 -107.65201 39174 ft 541 kts 75°
2026-04-22 18:06 38.08458 -107.55907 39155 ft 541 kts 75°
2026-04-22 18:07 38.10254 -107.46648 39141 ft 538 kts 75°
2026-04-22 18:07 38.12020 -107.37502 39132 ft 536 kts 75°
2026-04-22 18:08 38.13784 -107.28320 39125 ft 534 kts 76°
2026-04-22 18:08 38.15534 -107.19172 39121 ft 532 kts 76°
2026-04-22 18:09 38.17271 -107.10051 39117 ft 529 kts 76°
2026-04-22 18:09 38.18992 -107.00976 39112 ft 526 kts 77°
2026-04-22 18:10 38.20693 -106.91957 39105 ft 523 kts 77°
2026-04-22 18:10 38.22381 -106.82972 39138 ft 521 kts 77°
2026-04-22 18:11 38.24054 -106.74025 39150 ft 518 kts 78°
2026-04-22 18:11 38.25711 -106.65123 39165 ft 516 kts 78°
2026-04-22 18:12 38.27357 -106.56245 39186 ft 514 kts 78°
2026-04-22 18:12 38.28714 -106.48888 39206 ft 513 kts 78°
2026-04-22 18:13 38.30611 -106.38566 39233 ft 512 kts 78°
2026-04-22 18:13 38.32213 -106.29804 39244 ft 511 kts 78°
2026-04-22 18:14 38.33816 -106.20993 39204 ft 510 kts 78°
2026-04-22 18:14 38.35411 -106.12194 39164 ft 510 kts 78°
2026-04-22 18:15 38.36999 -106.03389 39117 ft 509 kts 78°
2026-04-22 18:15 38.38582 -105.94569 39039 ft 508 kts 79°
2026-04-22 18:16 38.40149 -105.85799 39036 ft 506 kts 79°
2026-04-22 18:16 38.41706 -105.77046 39041 ft 507 kts 79°
2026-04-22 18:17 38.43260 -105.68271 39020 ft 507 kts 79°
2026-04-22 18:17 38.44805 -105.59504 39065 ft 506 kts 79°
2026-04-22 18:18 38.46345 -105.50725 39016 ft 507 kts 80°
2026-04-22 18:18 38.47878 -105.41944 38967 ft 506 kts 80°
2026-04-22 18:19 38.49401 -105.33178 38960 ft 506 kts 81°
2026-04-22 18:19 38.50919 -105.24399 38941 ft 506 kts 81°
2026-04-22 18:20 38.52421 -105.15678 38927 ft 506 kts 81°
2026-04-22 18:20 38.53925 -105.06900 38918 ft 506 kts 81°
2026-04-22 18:21 38.55421 -104.98124 38917 ft 505 kts 82°
2026-04-22 18:21 38.56912 -104.89334 38916 ft 505 kts 82°
2026-04-22 18:22 38.58395 -104.80555 38912 ft 505 kts 82°
2026-04-22 18:22 38.59872 -104.71765 38911 ft 505 kts 82°
2026-04-22 18:23 38.61331 -104.63042 38913 ft 505 kts 82°
2026-04-22 18:23 38.62793 -104.54256 38912 ft 505 kts 82°
2026-04-22 18:24 38.64973 -104.41077 38907 ft 505 kts 83°
2026-04-22 18:25 38.67138 -104.27891 38923 ft 505 kts 83°
2026-04-22 18:25 38.68572 -104.19101 38920 ft 504 kts 83°
2026-04-22 18:26 38.70709 -104.05914 38913 ft 505 kts 83°
2026-04-22 18:26 38.72129 -103.97105 38909 ft 504 kts 83°
2026-04-22 18:27 38.73541 -103.88301 38904 ft 504 kts 83°
2026-04-22 18:27 38.74943 -103.79512 38899 ft 504 kts 83°
2026-04-22 18:28 38.76331 -103.70766 38895 ft 504 kts 83°
2026-04-22 18:28 38.77721 -103.61957 38874 ft 505 kts 83°
2026-04-22 18:29 38.79108 -103.53131 38868 ft 505 kts 83°
2026-04-22 18:29 38.80487 -103.44307 38864 ft 505 kts 83°
2026-04-22 18:30 38.82542 -103.31064 38863 ft 504 kts 83°
2026-04-22 18:31 38.83904 -103.22235 38862 ft 504 kts 83°
2026-04-22 18:31 38.85258 -103.13408 38860 ft 504 kts 83°
2026-04-22 18:32 38.86598 -103.04628 38859 ft 504 kts 83°
2026-04-22 18:32 38.87940 -102.95791 38858 ft 504 kts 83°
2026-04-22 18:33 38.89276 -102.86938 38857 ft 504 kts 83°
2026-04-22 18:33 38.90606 -102.78084 38855 ft 504 kts 83°
2026-04-22 18:34 38.91928 -102.69234 38854 ft 504 kts 83°
2026-04-22 18:34 38.93243 -102.60379 38851 ft 504 kts 83°
2026-04-22 18:35 38.94551 -102.51526 38848 ft 505 kts 83°
2026-04-22 18:35 38.95852 -102.42677 38844 ft 504 kts 83°
2026-04-22 18:36 38.97146 -102.33820 38845 ft 504 kts 83°
2026-04-22 18:36 38.98433 -102.24962 38845 ft 505 kts 83°
2026-04-22 18:37 38.99716 -102.16086 38844 ft 504 kts 83°
2026-04-22 18:37 39.00775 -102.08715 38843 ft 504 kts 83°
2026-04-22 18:38 39.02256 -101.98356 38840 ft 504 kts 83°
2026-04-22 18:38 39.03516 -101.89488 38838 ft 504 kts 83°
2026-04-22 18:39 39.05392 -101.76196 38834 ft 503 kts 83°
2026-04-22 18:39 39.06632 -101.67337 38830 ft 503 kts 83°
2026-04-22 18:40 39.07860 -101.58522 38828 ft 503 kts 83°
2026-04-22 18:40 39.09088 -101.49651 38829 ft 503 kts 83°
2026-04-22 18:41 39.10309 -101.40782 38831 ft 503 kts 83°
2026-04-22 18:41 39.11524 -101.31909 38836 ft 503 kts 83°
2026-04-22 18:42 39.12535 -101.24477 38842 ft 503 kts 83°
2026-04-22 18:42 39.13731 -101.15643 38846 ft 503 kts 83°
2026-04-22 18:43 39.14925 -101.06768 38848 ft 503 kts 83°
2026-04-22 18:43 39.16112 -100.97895 38854 ft 502 kts 83°
2026-04-22 18:44 39.17291 -100.89028 38858 ft 502 kts 83°
2026-04-22 18:44 39.18463 -100.80161 38851 ft 502 kts 84°
2026-04-22 18:45 39.19630 -100.71285 38839 ft 502 kts 84°
2026-04-22 18:45 39.20796 -100.62398 38838 ft 502 kts 83°
2026-04-22 18:46 39.21981 -100.53530 38837 ft 502 kts 84°
2026-04-22 18:46 39.23108 -100.44700 38846 ft 502 kts 84°
2026-04-22 18:47 39.24233 -100.35807 38850 ft 502 kts 84°
2026-04-22 18:47 39.25355 -100.26921 38856 ft 502 kts 84°
2026-04-22 18:48 39.26518 -100.18033 38863 ft 502 kts 82°
2026-04-22 18:48 39.27911 -100.09194 38869 ft 503 kts 81°
2026-04-22 18:49 39.29297 -100.00389 38875 ft 503 kts 82°
2026-04-22 18:49 39.30653 -99.91538 38878 ft 502 kts 82°
2026-04-22 18:50 39.31994 -99.82676 38880 ft 502 kts 82°
2026-04-22 18:50 39.33371 -99.73769 38880 ft 502 kts 81°
2026-04-22 18:51 39.34745 -99.64987 38879 ft 502 kts 82°
2026-04-22 18:51 39.36099 -99.56119 38878 ft 502 kts 82°
2026-04-22 18:52 39.37434 -99.47258 38873 ft 502 kts 82°
2026-04-22 18:52 39.38757 -99.38410 38870 ft 502 kts 82°
2026-04-22 18:53 39.40074 -99.29546 38870 ft 502 kts 82°
2026-04-22 18:53 39.41382 -99.20691 38881 ft 502 kts 82°
2026-04-22 18:54 39.42683 -99.11830 38882 ft 501 kts 82°
2026-04-22 18:54 39.43970 -99.03019 38884 ft 502 kts 82°
2026-04-22 18:55 39.45259 -98.94141 38886 ft 502 kts 82°
2026-04-22 18:55 39.46541 -98.85267 38888 ft 502 kts 82°
2026-04-22 18:56 39.47817 -98.76380 38902 ft 502 kts 82°
2026-04-22 18:56 39.49086 -98.67494 38909 ft 502 kts 82°
2026-04-22 18:57 39.50349 -98.58598 38911 ft 503 kts 82°
2026-04-22 18:57 39.51607 -98.49682 38914 ft 503 kts 82°
2026-04-22 18:58 39.52859 -98.40759 38919 ft 503 kts 82°
2026-04-22 18:58 39.54104 -98.31840 38925 ft 503 kts 82°
2026-04-22 18:59 39.55337 -98.22948 38931 ft 504 kts 82°
2026-04-22 18:59 39.56571 -98.14000 38938 ft 504 kts 82°
2026-04-22 19:00 39.57798 -98.05053 38944 ft 504 kts 82°
2026-04-22 19:00 39.59017 -97.96102 38949 ft 504 kts 82°
2026-04-22 19:01 39.60231 -97.87144 38953 ft 504 kts 82°
2026-04-22 19:01 39.61428 -97.78255 38957 ft 504 kts 82°
2026-04-22 19:02 39.62626 -97.69301 38958 ft 504 kts 82°
2026-04-22 19:02 39.63819 -97.60335 38959 ft 503 kts 82°
2026-04-22 19:03 39.65001 -97.51390 38960 ft 503 kts 82°
2026-04-22 19:03 39.66177 -97.42444 38959 ft 502 kts 82°
2026-04-22 19:04 39.67344 -97.33507 38960 ft 502 kts 82°
2026-04-22 19:04 39.68503 -97.24577 38952 ft 501 kts 82°
2026-04-22 19:05 39.69654 -97.15650 38951 ft 501 kts 82°
2026-04-22 19:05 39.70797 -97.06731 38955 ft 500 kts 82°
2026-04-22 19:06 39.71932 -96.97817 38959 ft 500 kts 82°
2026-04-22 19:07 39.73620 -96.84458 38965 ft 499 kts 82°
2026-04-22 19:07 39.74735 -96.75558 38967 ft 499 kts 82°
2026-04-22 19:08 39.75843 -96.66661 38969 ft 498 kts 82°
2026-04-22 19:08 39.76945 -96.57760 39264 ft 498 kts 82°
2026-04-22 19:08 39.77491 -96.53321 39526 ft 497 kts 82°
2026-04-22 19:09 39.78035 -96.48891 39729 ft 496 kts 82°
2026-04-22 19:09 39.78578 -96.44452 39957 ft 495 kts 82°
2026-04-22 19:09 39.78936 -96.41520 40056 ft 496 kts 81°
2026-04-22 19:09 39.79657 -96.35583 40263 ft 496 kts 82°
2026-04-22 19:10 39.80196 -96.31140 40440 ft 496 kts 81°
2026-04-22 19:10 39.80731 -96.26705 40614 ft 496 kts 81°
2026-04-22 19:10 39.81257 -96.22337 40778 ft 496 kts 81°
2026-04-22 19:10 39.81790 -96.17889 40944 ft 496 kts 81°
2026-04-22 19:11 39.82320 -96.13455 40987 ft 496 kts 81°
2026-04-22 19:11 39.83378 -96.04570 40993 ft 497 kts 81°
2026-04-22 19:12 39.84429 -95.95675 40997 ft 496 kts 82°
2026-04-22 19:12 39.85470 -95.86797 40999 ft 496 kts 82°
2026-04-22 19:13 39.86505 -95.77917 41000 ft 496 kts 82°
2026-04-22 19:13 39.87527 -95.69080 40999 ft 496 kts 82°
2026-04-22 19:14 39.88549 -95.60191 40999 ft 496 kts 82°
2026-04-22 19:14 39.89564 -95.51302 40997 ft 496 kts 82°
2026-04-22 19:15 39.90403 -95.43907 40999 ft 496 kts 82°
2026-04-22 19:15 39.91578 -95.33502 41002 ft 496 kts 81°
2026-04-22 19:16 39.92615 -95.24557 41006 ft 496 kts 82°
2026-04-22 19:16 39.93592 -95.15670 41011 ft 495 kts 82°
2026-04-22 19:17 39.94555 -95.06785 41016 ft 495 kts 82°
2026-04-22 19:17 39.95518 -94.97886 41020 ft 495 kts 82°
2026-04-22 19:18 39.96266 -94.88968 41026 ft 495 kts 87°
2026-04-22 19:18 39.96309 -94.79992 41035 ft 495 kts 91°
2026-04-22 19:19 39.96158 -94.72539 41039 ft 495 kts 91°
2026-04-22 19:19 39.96020 -94.62092 41046 ft 495 kts 90°
2026-04-22 19:20 39.95955 -94.54563 41053 ft 496 kts 90°
2026-04-22 19:20 39.95895 -94.45569 41063 ft 496 kts 89°
2026-04-22 19:21 39.95899 -94.36632 41071 ft 496 kts 89°
2026-04-22 19:21 39.95870 -94.27640 41081 ft 496 kts 90°
2026-04-22 19:22 39.95819 -94.18631 41085 ft 497 kts 90°
2026-04-22 19:22 39.95757 -94.09610 41084 ft 497 kts 90°
2026-04-22 19:23 39.95686 -94.00599 41082 ft 497 kts 90°
2026-04-22 19:23 39.95607 -93.91597 41080 ft 497 kts 90°
2026-04-22 19:24 39.95520 -93.82530 41079 ft 496 kts 90°
2026-04-22 19:24 39.95427 -93.73533 41079 ft 496 kts 90°
2026-04-22 19:25 39.95327 -93.64477 41079 ft 496 kts 90°
2026-04-22 19:25 39.95221 -93.55537 41079 ft 496 kts 90°
2026-04-22 19:26 39.95107 -93.46533 41079 ft 496 kts 90°
2026-04-22 19:26 39.94986 -93.37527 41080 ft 496 kts 90°
2026-04-22 19:27 39.94858 -93.28534 41081 ft 496 kts 90°
2026-04-22 19:27 39.94723 -93.19538 41082 ft 496 kts 90°
2026-04-22 19:28 39.94583 -93.10594 41084 ft 496 kts 90°
2026-04-22 19:28 39.94435 -93.01612 41086 ft 496 kts 90°
2026-04-22 19:29 39.94279 -92.92621 41086 ft 496 kts 90°
2026-04-22 19:29 39.94116 -92.83612 41089 ft 496 kts 90°
2026-04-22 19:30 39.93976 -92.76143 41090 ft 497 kts 90°
2026-04-22 19:30 39.93771 -92.65668 41090 ft 497 kts 90°
2026-04-22 19:31 39.93588 -92.56665 41092 ft 497 kts 90°
2026-04-22 19:31 39.93397 -92.47654 41092 ft 497 kts 90°
2026-04-22 19:32 39.93199 -92.38632 41093 ft 498 kts 90°
2026-04-22 19:32 39.92995 -92.29616 41094 ft 498 kts 90°
2026-04-22 19:33 39.92783 -92.20603 41095 ft 498 kts 90°
2026-04-22 19:33 39.92564 -92.11581 41096 ft 498 kts 90°
2026-04-22 19:34 39.92338 -92.02559 41097 ft 498 kts 90°
2026-04-22 19:34 39.92105 -91.93540 41103 ft 498 kts 90°
2026-04-22 19:35 39.91866 -91.84514 41106 ft 498 kts 90°
2026-04-22 19:35 39.91619 -91.75496 41109 ft 498 kts 90°
2026-04-22 19:36 39.91363 -91.66409 41110 ft 498 kts 90°
2026-04-22 19:36 39.91102 -91.57384 41110 ft 498 kts 90°
2026-04-22 19:37 39.90835 -91.48379 41108 ft 498 kts 90°
2026-04-22 19:37 39.90560 -91.39374 41103 ft 497 kts 90°
2026-04-22 19:38 39.90278 -91.30362 41097 ft 497 kts 90°
2026-04-22 19:38 39.89991 -91.21370 41092 ft 497 kts 90°
2026-04-22 19:39 39.89695 -91.12368 41092 ft 497 kts 90°
2026-04-22 19:39 39.89395 -91.03431 41090 ft 497 kts 90°
2026-04-22 19:40 39.89086 -90.94431 41086 ft 497 kts 90°
2026-04-22 19:40 39.88770 -90.85427 41083 ft 497 kts 90°
2026-04-22 19:41 39.88446 -90.76418 41081 ft 497 kts 90°
2026-04-22 19:41 39.88117 -90.67430 41081 ft 497 kts 89°
2026-04-22 19:42 39.87780 -90.58433 41081 ft 497 kts 89°
2026-04-22 19:42 39.87436 -90.49432 41081 ft 498 kts 89°
2026-04-22 19:43 39.86907 -90.35921 41079 ft 498 kts 89°
2026-04-22 19:43 39.86545 -90.26920 41079 ft 498 kts 89°
2026-04-22 19:44 39.86177 -90.17919 41078 ft 498 kts 89°
2026-04-22 19:44 39.85807 -90.08973 41072 ft 498 kts 89°
2026-04-22 19:45 39.85462 -89.99967 41067 ft 498 kts 89°
2026-04-22 19:45 39.85063 -89.90960 41064 ft 498 kts 90°
2026-04-22 19:46 39.84651 -89.81947 41063 ft 498 kts 90°
2026-04-22 19:46 39.84236 -89.72942 41061 ft 498 kts 90°
2026-04-22 19:47 39.83891 -89.63943 41060 ft 497 kts 87°
2026-04-22 19:47 39.83958 -89.55001 41061 ft 496 kts 85°
2026-04-22 19:48 39.84069 -89.46018 41063 ft 496 kts 85°
2026-04-22 19:48 39.84112 -89.37055 41065 ft 495 kts 86°
2026-04-22 19:49 39.84134 -89.28105 41068 ft 494 kts 86°
2026-04-22 19:49 39.84174 -89.19142 41068 ft 494 kts 85°
2026-04-22 19:50 39.84231 -89.10257 41069 ft 494 kts 86°
2026-04-22 19:50 39.84252 -89.01256 41070 ft 493 kts 86°
2026-04-22 19:51 39.84264 -88.92337 41070 ft 493 kts 85°
2026-04-22 19:51 39.84300 -88.83421 41070 ft 493 kts 86°
2026-04-22 19:52 39.84282 -88.74499 41070 ft 492 kts 86°
2026-04-22 19:52 39.84252 -88.65600 41071 ft 492 kts 86°
2026-04-22 19:53 39.84220 -88.56699 41071 ft 492 kts 86°
2026-04-22 19:53 39.84195 -88.47800 41073 ft 491 kts 85°
2026-04-22 19:54 39.84178 -88.40412 41073 ft 491 kts 86°
2026-04-22 19:54 39.84132 -88.31523 41073 ft 491 kts 86°
2026-04-22 19:55 39.84083 -88.22638 41071 ft 491 kts 86°
2026-04-22 19:55 39.84014 -88.13757 41070 ft 491 kts 86°
2026-04-22 19:56 39.83933 -88.04921 41070 ft 491 kts 86°
2026-04-22 19:56 39.83844 -87.96034 41069 ft 491 kts 86°
2026-04-22 19:57 39.83748 -87.87086 41069 ft 491 kts 86°
2026-04-22 19:57 39.83660 -87.78260 41068 ft 491 kts 86°
2026-04-22 19:58 39.83619 -87.69367 41069 ft 491 kts 86°
2026-04-22 19:58 39.83539 -87.60481 41069 ft 491 kts 86°
2026-04-22 20:00 39.83155 -87.29491 41066 ft 491 kts 86°
2026-04-22 20:01 39.83028 -87.20593 41069 ft 491 kts 87°
2026-04-22 20:01 39.82894 -87.11698 41068 ft 492 kts 87°
2026-04-22 20:02 39.82753 -87.02790 41068 ft 492 kts 87°
2026-04-22 20:02 39.82606 -86.93886 41067 ft 492 kts 87°
2026-04-22 20:03 39.82451 -86.84969 41067 ft 493 kts 87°
2026-04-22 20:03 39.82306 -86.76041 41072 ft 493 kts 87°
2026-04-22 20:04 39.82163 -86.67174 41074 ft 493 kts 87°
2026-04-22 20:04 39.81977 -86.58337 41076 ft 493 kts 88°
2026-04-22 20:05 39.81780 -86.49412 41067 ft 493 kts 88°
2026-04-22 20:05 39.81582 -86.40493 41062 ft 494 kts 88°
2026-04-22 20:06 39.82289 -86.25670 41052 ft 491 kts 79°
2026-04-22 20:06 39.86181 -85.90627 41060 ft 488 kts 77°
2026-04-22 20:07 39.89819 -85.55571 41054 ft 488 kts 78°
2026-04-22 20:07 39.93186 -85.20461 41050 ft 489 kts 78°
2026-04-22 20:08 39.96480 -84.85329 41062 ft 488 kts 79°
2026-04-22 20:08 39.99671 -84.50115 41058 ft 489 kts 79°
2026-04-22 20:09 40.02757 -84.14848 41058 ft 490 kts 79°
2026-04-22 20:09 40.05743 -83.79468 41053 ft 490 kts 79°
2026-04-22 20:10 40.08624 -83.44028 41053 ft 490 kts 79°
2026-04-22 20:10 40.11395 -83.08583 41039 ft 491 kts 79°
2026-04-22 20:11 40.14095 -82.73054 41045 ft 490 kts 79°
2026-04-22 20:11 40.12505 -82.37477 41045 ft 501 kts 104°
2026-04-22 20:12 40.02735 -82.02941 41049 ft 503 kts 102°
2026-04-22 20:12 39.97232 -81.73323 41050 ft 500 kts 99°
2026-04-22 20:13 39.88567 -81.32638 41054 ft 503 kts 102°
2026-04-22 20:13 39.80883 -80.97646 41062 ft 503 kts 102°
2026-04-22 20:14 39.73986 -80.66569 41062 ft 503 kts 102°
2026-04-22 20:14 39.72028 -80.57831 41068 ft 503 kts 102°
2026-04-22 20:15 39.70065 -80.49100 41070 ft 504 kts 102°
2026-04-22 20:15 39.68085 -80.40322 40438 ft 509 kts 102°
2026-04-22 20:15 39.67090 -80.35927 39837 ft 507 kts 102°
2026-04-22 20:16 39.66095 -80.31538 39193 ft 506 kts 102°
2026-04-22 20:16 39.65100 -80.27157 38541 ft 505 kts 101°
2026-04-22 20:16 39.64127 -80.22792 37880 ft 504 kts 101°
2026-04-22 20:16 39.63152 -80.18431 37205 ft 503 kts 101°
2026-04-22 20:17 39.62159 -80.14081 36514 ft 503 kts 101°
2026-04-22 20:17 39.61159 -80.09737 35836 ft 502 kts 101°
2026-04-22 20:17 39.60170 -80.05458 35182 ft 501 kts 101°
2026-04-22 20:17 39.59168 -80.01131 34505 ft 500 kts 101°
2026-04-22 20:18 39.58172 -79.96830 33913 ft 497 kts 101°
2026-04-22 20:18 39.57180 -79.92554 33361 ft 493 kts 101°
2026-04-22 20:18 39.56199 -79.88321 32820 ft 489 kts 101°
2026-04-22 20:18 39.55243 -79.84104 32283 ft 484 kts 99°
2026-04-22 20:19 39.54440 -79.79830 31751 ft 478 kts 97°
2026-04-22 20:19 39.53752 -79.75646 31223 ft 474 kts 96°
2026-04-22 20:19 39.53065 -79.71486 30696 ft 480 kts 97°
2026-04-22 20:19 39.52319 -79.67234 30152 ft 487 kts 98°
2026-04-22 20:20 39.51527 -79.62949 29580 ft 493 kts 98°
2026-04-22 20:20 39.50738 -79.58594 28984 ft 499 kts 98°
2026-04-22 20:20 39.49935 -79.54214 28376 ft 497 kts 99°
2026-04-22 20:20 39.49152 -79.49880 27801 ft 492 kts 99°
2026-04-22 20:21 39.48381 -79.45581 27207 ft 487 kts 99°
2026-04-22 20:21 39.47614 -79.41327 26629 ft 482 kts 100°
2026-04-22 20:21 39.46855 -79.37120 26054 ft 478 kts 100°
2026-04-22 20:21 39.46091 -79.32958 25478 ft 474 kts 101°
2026-04-22 20:22 39.45324 -79.28823 24901 ft 470 kts 101°
2026-04-22 20:22 39.44565 -79.24737 24332 ft 466 kts 101°
2026-04-22 20:22 39.43811 -79.20676 23849 ft 460 kts 102°
2026-04-22 20:22 39.43079 -79.16716 23723 ft 446 kts 101°
2026-04-22 20:23 39.42408 -79.12840 23361 ft 439 kts 101°
2026-04-22 20:23 39.41749 -79.08978 22646 ft 442 kts 101°
2026-04-22 20:23 39.41067 -79.05088 21981 ft 443 kts 101°
2026-04-22 20:23 39.40384 -79.01230 21618 ft 436 kts 101°
2026-04-22 20:24 39.39708 -78.97415 21024 ft 435 kts 101°
2026-04-22 20:24 39.39035 -78.93617 20616 ft 430 kts 101°
2026-04-22 20:24 39.38393 -78.89958 20046 ft 408 kts 101°
2026-04-22 20:24 39.37769 -78.86385 19545 ft 407 kts 101°
2026-04-22 20:25 39.37133 -78.82826 19052 ft 406 kts 101°
2026-04-22 20:25 39.36492 -78.79283 18564 ft 405 kts 101°
2026-04-22 20:25 39.35848 -78.75742 18080 ft 403 kts 101°
2026-04-22 20:25 39.35209 -78.72224 17590 ft 402 kts 101°
2026-04-22 20:26 39.34572 -78.68726 17091 ft 391 kts 101°
2026-04-22 20:26 39.33971 -78.65432 16636 ft 363 kts 101°
2026-04-22 20:26 39.33399 -78.62298 16207 ft 360 kts 101°
2026-04-22 20:26 39.32817 -78.59102 15758 ft 372 kts 101°
2026-04-22 20:27 39.32206 -78.55751 15282 ft 390 kts 101°
2026-04-22 20:27 39.31605 -78.52359 14799 ft 393 kts 101°
2026-04-22 20:27 39.30995 -78.48966 14283 ft 374 kts 101°
2026-04-22 20:27 39.30415 -78.45705 13832 ft 372 kts 101°
2026-04-22 20:28 39.29821 -78.42462 13358 ft 371 kts 102°
2026-04-22 20:28 39.29364 -78.40341 13048 ft 369 kts 106°
2026-04-22 20:28 39.28449 -78.37250 12589 ft 367 kts 110°
2026-04-22 20:28 39.27436 -78.34228 12090 ft 367 kts 115°
2026-04-22 20:29 39.26130 -78.31405 11590 ft 366 kts 124°
2026-04-22 20:29 39.24638 -78.28758 11285 ft 363 kts 127°
2026-04-22 20:29 39.23173 -78.26151 11178 ft 353 kts 126°
2026-04-22 20:29 39.21801 -78.23606 11122 ft 338 kts 124°
2026-04-22 20:30 39.20500 -78.21125 10929 ft 330 kts 124°
2026-04-22 20:30 39.19218 -78.18680 10486 ft 330 kts 124°
2026-04-22 20:30 39.17937 -78.16256 10218 ft 323 kts 125°
2026-04-22 20:30 39.16703 -78.13906 9985 ft 306 kts 124°
2026-04-22 20:31 39.15522 -78.11655 9819 ft 303 kts 125°
2026-04-22 20:31 39.14336 -78.09405 9655 ft 303 kts 125°
2026-04-22 20:31 39.13148 -78.07157 9488 ft 303 kts 125°
2026-04-22 20:31 39.11958 -78.04908 9313 ft 304 kts 125°
2026-04-22 20:32 39.10777 -78.02671 9139 ft 300 kts 125°
2026-04-22 20:32 39.09615 -78.00478 8941 ft 301 kts 126°
2026-04-22 20:32 39.08436 -77.98248 8618 ft 302 kts 126°
2026-04-22 20:32 39.07251 -77.96023 8330 ft 299 kts 126°
2026-04-22 20:33 39.06288 -77.94201 8073 ft 297 kts 126°
2026-04-22 20:33 39.05332 -77.92404 7837 ft 296 kts 126°
2026-04-22 20:33 39.04163 -77.90218 7505 ft 295 kts 126°
2026-04-22 20:33 39.03008 -77.88056 7208 ft 293 kts 126°
2026-04-22 20:34 39.01869 -77.85898 6951 ft 289 kts 126°
2026-04-22 20:34 39.00756 -77.83797 6739 ft 283 kts 126°
2026-04-22 20:34 38.99630 -77.81685 6554 ft 286 kts 126°
2026-04-22 20:34 38.98503 -77.79572 6357 ft 286 kts 126°
2026-04-22 20:35 38.97459 -77.77426 6148 ft 281 kts 118°
2026-04-22 20:35 38.96755 -77.75082 5996 ft 283 kts 109°
2026-04-22 20:35 38.96230 -77.72620 5927 ft 287 kts 103°
2026-04-22 20:35 38.95897 -77.70100 5858 ft 286 kts 98°
2026-04-22 20:36 38.95659 -77.67572 5790 ft 284 kts 96°
2026-04-22 20:36 38.95745 -77.65074 5722 ft 281 kts 75°
2026-04-22 20:36 38.96643 -77.62869 5671 ft 279 kts 49°
2026-04-22 20:36 38.98053 -77.61205 5591 ft 273 kts 38°
2026-04-22 20:37 38.99480 -77.59604 5507 ft 271 kts 37°
2026-04-22 20:37 39.01048 -77.58305 5438 ft 267 kts 21°
2026-04-22 20:37 39.02822 -77.57637 5377 ft 265 kts
2026-04-22 20:37 39.04694 -77.57390 5302 ft 262 kts 360°
2026-04-22 20:38 39.06497 -77.57352 5233 ft 256 kts 355°
2026-04-22 20:38 39.08269 -77.57411 5151 ft 254 kts 354°
2026-04-22 20:38 39.10005 -77.57450 5066 ft 245 kts 355°
2026-04-22 20:38 39.11684 -77.57460 4962 ft 236 kts 355°
2026-04-22 20:39 39.13277 -77.57462 4822 ft 229 kts 355°
2026-04-22 20:39 39.14861 -77.57462 4609 ft 226 kts 355°
2026-04-22 20:39 39.16428 -77.57476 4314 ft 226 kts 355°
2026-04-22 20:39 39.17996 -77.57493 4093 ft 224 kts 355°
2026-04-22 20:40 39.19525 -77.57508 4034 ft 215 kts 355°
2026-04-22 20:40 39.20980 -77.57523 4001 ft 205 kts 355°
2026-04-22 20:40 39.22392 -77.57537 4009 ft 202 kts 355°
2026-04-22 20:40 39.23793 -77.57550 4007 ft 200 kts 355°
2026-04-22 20:41 39.25170 -77.57335 4009 ft 203 kts 16°
2026-04-22 20:41 39.26255 -77.56181 4001 ft 207 kts 50°
2026-04-22 20:41 39.26623 -77.54428 4018 ft 202 kts 86°
2026-04-22 20:41 39.26172 -77.52766 4091 ft 196 kts 117°
2026-04-22 20:42 39.25387 -77.51343 4154 ft 194 kts 128°
2026-04-22 20:42 39.24395 -77.50161 4045 ft 194 kts 146°
2026-04-22 20:42 39.23221 -77.49339 4032 ft 191 kts 156°
2026-04-22 20:42 39.22013 -77.48654 4039 ft 189 kts 160°
2026-04-22 20:43 39.20812 -77.48014 4027 ft 189 kts 161°
2026-04-22 20:43 39.19601 -77.47345 4018 ft 188 kts 161°
2026-04-22 20:43 39.18401 -77.46677 4010 ft 187 kts 161°
2026-04-22 20:43 39.17208 -77.46039 4016 ft 185 kts 165°
2026-04-22 20:44 39.15953 -77.45677 3989 ft 186 kts 177°
2026-04-22 20:44 39.14631 -77.45622 3724 ft 193 kts 184°
2026-04-22 20:44 39.13292 -77.45665 3463 ft 191 kts 186°
2026-04-22 20:44 39.11971 -77.45706 3214 ft 190 kts 186°
2026-04-22 20:45 39.10652 -77.45734 2954 ft 189 kts 185°
2026-04-22 20:45 39.09336 -77.45757 2687 ft 188 kts 185°
2026-04-22 20:45 39.08043 -77.45777 2441 ft 182 kts 185°
2026-04-22 20:45 39.06831 -77.45795 2205 ft 170 kts 185°
2026-04-22 20:46 39.04815 -77.45824 1814 ft 148 kts 184°
2026-04-22 20:46 39.03830 -77.45839 1636 ft 137 kts 184°
2026-04-22 20:46 39.02904 -77.45852 1465 ft 131 kts 183°
2026-04-22 20:47 39.01993 -77.45865 1287 ft 133 kts 184°
2026-04-22 20:47 39.01071 -77.45878 1112 ft 132 kts 185°
2026-04-22 20:47 39.00151 -77.45891 935 ft 132 kts 185°
2026-04-22 20:47 38.99234 -77.45904 759 ft 132 kts 184°
2026-04-22 20:48 38.98318 -77.45917 584 ft 131 kts 181°
2026-04-22 20:48 38.97402 -77.45930 410 ft 132 kts 181°
2026-04-22 20:48 38.96509 -77.45943 326 ft 118 kts 182°
2026-04-22 20:48 38.95878 -77.45956 326 ft 64 kts 181°
2026-04-22 20:49 38.95623 -77.45956 326 ft 31 kts 175°
2026-04-22 20:49 38.95415 -77.45863 326 ft 34 kts 148°
2026-04-22 20:49 38.95336 -77.45799 326 ft 11 kts 148°
2026-04-22 20:49 38.95260 -77.45749 326 ft 14 kts 160°
2026-04-22 20:50 38.95147 -77.45721 326 ft 19 kts 176°
2026-04-22 20:50 38.94999 -77.45722 326 ft 23 kts 180°
2026-04-22 20:50 38.94846 -77.45723 326 ft 21 kts 180°
2026-04-22 20:50 38.94705 -77.45727 326 ft 20 kts 181°
2026-04-22 20:51 38.94572 -77.45727 326 ft 19 kts 180°
2026-04-22 20:51 38.94460 -77.45721 326 ft 15 kts 152°
2026-04-22 20:51 38.94424 -77.45601 326 ft 17 kts 91°
2026-04-22 20:51 38.94422 -77.45433 326 ft 19 kts 90°
2026-04-22 20:52 38.94421 -77.45265 326 ft 18 kts 91°
2026-04-22 20:52 38.94419 -77.45106 326 ft 17 kts 91°
2026-04-22 20:52 38.94417 -77.44955 326 ft 17 kts 91°
2026-04-22 20:52 38.94416 -77.44811 326 ft 16 kts 91°
2026-04-22 20:53 38.94415 -77.44676 326 ft 15 kts 90°
2026-04-22 20:53 38.94414 -77.44549 326 ft 14 kts 90°
2026-04-22 20:53 38.94428 -77.44463 326 ft 9 kts 28°
2026-04-22 20:53 38.94436 -77.44459 326 ft 0 kts 16°
2026-04-22 20:54 38.94469 -77.44447 326 ft 6 kts 15°
2026-04-22 20:54 38.94490 -77.44440 326 ft 0 kts 14°